{"data":{"norad_id":53184,"epoch":"2026-09-19T15:34:47.649504Z","epoch_age_seconds":145767,"freshness":"FRESH","line1":"1 53184U 22083BE  26262.64916261  .00000619  00000+0  31707-4 0  9996","line2":"2 53184  53.1609 322.8044 0001195  80.0628 280.0509 15.31703363231349","mean_motion":15.31703363,"eccentricity":0.0001195,"inclination_deg":53.1609,"raan_deg":322.8044,"arg_perigee_deg":80.0628,"mean_anomaly_deg":280.0509,"bstar":3.1707e-5,"rev_number":23134,"period_min":94.012981546219,"perigee_km":469.91153071303,"apogee_km":471.54840991894,"semimajor_km":6848.866970316,"source":"CELESTRAK","updated_at":"2026-09-20T09:00:40.188514Z"}}